Location: Zapote
(9.9191°N, 84.0597°W)
Time: 08:52:06
(UTC-06:00)

Courier 1B Rocket - Pass Details

Date: 12 March 2021
Orbit: 920 x 1202 km, 28.2° (Epoch: 09 April)

Event Time Altitude Azimuth Distance (km) Brightness Sun altitude
Rises 19:48:29 0° 271° (W) 4,029 9.4 -30.7°
Reaches altitude 10° 19:52:05 10° 256° (WSW) 3,096 8.4 -31.6°
Maximum altitude 19:57:36 21° 210° (SSW) 2,396 7.2 -32.9°
Enters shadow 20:00:52 16° 180° (S) 2,671 7.2 -33.7°
